Location: Eboldshausen
(51.7766°N, 10.0050°E)
Time: 16:15:38
(UTC+00:00)

Cosmos 1464 Rocket - Pass Details

Date: 15 November 2025
Orbit: 950 x 1001 km, 82.9° (Epoch: 09 December)

Event Time Altitude Azimuth Distance (km) Brightness Sun altitude
Rises 18:10:46 0° 193° (SSW) 3,694 7.2 -24.7°
Reaches altitude 10° 18:13:18 10° 195° (SSW) 2,744 6.5 -25.1°
Maximum altitude 18:19:36 77° 281° (W) 1,011 4.1 -26.1°
Drops below altitude 10° 18:25:52 10° 8° (N) 2,726 6.3 -27.1°
Sets 18:28:23 0° 10° (N) 3,670 7.0 -27.5°
